• în România
  • Lista ţărilor
  • Pe 7 zile
  • Temperatura apei
  • Hartă satelitară
  • Meteo pe hartă
  • Widget-uri
  • user-avatar
    Intrare

    Meteo pe oră la Antwerp

    Astăzi, 24 Septembrie, Luni

    Timp Temperatura Precipitaţii Vânt Presiune Umiditate
    00:00 +8°C° 0 mm 3 m/s 770 mmHg 83%
    01:00 +8°C° 0 mm 3 m/s 771 mmHg 83%
    02:00 +8°C° 0 mm 3 m/s 771 mmHg 83%
    03:00 +8°C° 0 mm 3 m/s 772 mmHg 83%
    04:00 +8°C° 0 mm 3 m/s 772 mmHg 83%
    05:00 +8°C° 0 mm 3 m/s 773 mmHg 84%
    06:00 +8°C° 0 mm 3 m/s 773 mmHg 84%
    07:00 +10°C° 0.2 mm 3 m/s 774 mmHg 80%
    08:00 +11°C° 0.2 mm 4 m/s 774 mmHg 76%
    09:00 +13°C° 0.2 mm 4 m/s 775 mmHg 72%
    10:00 +14°C° 0.2 mm 4 m/s 775 mmHg 68%
    11:00 +14°C° 0.2 mm 5 m/s 775 mmHg 64%
    12:00 +15°C° 0.2 mm 5 m/s 775 mmHg 60%
    13:00 +15°C° 0.1 mm 5 m/s 775 mmHg 59%
    14:00 +15°C° 0.1 mm 5 m/s 775 mmHg 57%
    15:00 +15°C° 0.1 mm 5 m/s 775 mmHg 56%
    16:00 +14°C° 0 mm 4 m/s 775 mmHg 60%
    17:00 +12°C° 0 mm 4 m/s 776 mmHg 64%
    18:00 +11°C° 0 mm 3 m/s 776 mmHg 69%
    19:00 +10°C° 0 mm 2 m/s 776 mmHg 71%
    20:00 +9°C° 0 mm 2 m/s 777 mmHg 73%
    21:00 +10°C° 0 mm 1 m/s 777 mmHg 75%
    22:00 +10°C° 0 mm 1 m/s 777 mmHg 77%
    23:00 +9°C° 0 mm 1 m/s 777 mmHg 79%

    Mâine, 25 Septembrie, Marţi

    Timp Temperatura Precipitaţii Vânt Presiune Umiditate
    00:00 +8°C° 0 mm 0 m/s 777 mmHg 81%
    01:00 +8°C° 0 mm 0 m/s 777 mmHg 82%
    02:00 +7°C° 0 mm 0 m/s 777 mmHg 83%
    03:00 +7°C° 0 mm 0 m/s 777 mmHg 84%
    04:00 +8°C° 0 mm 1 m/s 777 mmHg 84%
    05:00 +8°C° 0 mm 1 m/s 777 mmHg 85%
    06:00 +8°C° 0 mm 1 m/s 778 mmHg 85%
    07:00 +10°C° 0 mm 1 m/s 778 mmHg 78%
    08:00 +12°C° 0 mm 1 m/s 778 mmHg 71%
    09:00 +13°C° 0 mm 1 m/s 778 mmHg 64%
    10:00 +14°C° 0 mm 2 m/s 778 mmHg 59%
    11:00 +15°C° 0 mm 2 m/s 778 mmHg 54%
    12:00 +16°C° 0 mm 2 m/s 778 mmHg 49%
    13:00 +16°C° 0 mm 2 m/s 777 mmHg 48%
    14:00 +18°C° 0 mm 1 m/s 777 mmHg 46%
    15:00 +18°C° 0 mm 1 m/s 776 mmHg 45%
    16:00 +15°C° 0 mm 1 m/s 776 mmHg 50%
    17:00 +14°C° 0 mm 1 m/s 776 mmHg 54%
    18:00 +12°C° 0 mm 1 m/s 776 mmHg 59%
    19:00 +12°C° 0 mm 1 m/s 776 mmHg 60%
    20:00 +10°C° 0 mm 2 m/s 776 mmHg 62%
    21:00 +10°C° 0 mm 2 m/s 777 mmHg 64%
    22:00 +9°C° 0 mm 2 m/s 776 mmHg 66%
    23:00 +9°C° 0 mm 2 m/s 776 mmHg 67%

    Poimâine, 26 Septembrie, Miercuri

    Timp Temperatura Precipitaţii Vânt Presiune Umiditate
    00:00 +9°C° 0 mm 2 m/s 776 mmHg 68%
    01:00 +8°C° 0 mm 2 m/s 776 mmHg 69%
    02:00 +8°C° 0 mm 2 m/s 775 mmHg 69%
    03:00 +8°C° 0 mm 2 m/s 775 mmHg 69%
    04:00 +8°C° 0 mm 2 m/s 775 mmHg 69%
    05:00 +7°C° 0 mm 2 m/s 775 mmHg 68%
    06:00 +7°C° 0 mm 2 m/s 775 mmHg 67%
    07:00 +9°C° 0 mm 2 m/s 775 mmHg 62%
    08:00 +12°C° 0 mm 2 m/s 775 mmHg 56%
    09:00 +14°C° 0 mm 2 m/s 775 mmHg 51%
    10:00 +16°C° 0 mm 2 m/s 775 mmHg 48%
    11:00 +17°C° 0 mm 2 m/s 775 mmHg 44%
    12:00 +19°C° 0 mm 2 m/s 774 mmHg 41%
    13:00 +19°C° 0 mm 2 m/s 774 mmHg 41%
    14:00 +19°C° 0 mm 2 m/s 774 mmHg 41%
    15:00 +20°C° 0 mm 2 m/s 773 mmHg 41%
    16:00 +18°C° 0 mm 2 m/s 773 mmHg 46%
    17:00 +16°C° 0 mm 1 m/s 773 mmHg 50%
    18:00 +15°C° 0 mm 1 m/s 773 mmHg 55%
    19:00 +14°C° 0 mm 1 m/s 774 mmHg 56%
    20:00 +14°C° 0 mm 1 m/s 774 mmHg 57%
    21:00 +13°C° 0 mm 1 m/s 774 mmHg 58%
    22:00 +13°C° 0 mm 1 m/s 774 mmHg 59%
    23:00 +13°C° 0 mm 2 m/s 774 mmHg 59%

    27 Septembrie, Joi

    Timp Temperatura Precipitaţii Vânt Presiune Umiditate
    00:00 +12°C° 0 mm 2 m/s 773 mmHg 59%
    01:00 +12°C° 0 mm 2 m/s 773 mmHg 60%
    02:00 +12°C° 0 mm 2 m/s 773 mmHg 60%
    03:00 +10°C° 0 mm 2 m/s 773 mmHg 61%
    04:00 +10°C° 0 mm 2 m/s 773 mmHg 62%
    05:00 +10°C° 0 mm 2 m/s 773 mmHg 63%
    06:00 +10°C° 0 mm 2 m/s 772 mmHg 64%
    07:00 +13°C° 0 mm 2 m/s 772 mmHg 59%
    08:00 +15°C° 0 mm 2 m/s 772 mmHg 55%
    09:00 +17°C° 0 mm 2 m/s 772 mmHg 50%
    10:00 +18°C° 0 mm 2 m/s 772 mmHg 47%
    11:00 +20°C° 0 mm 2 m/s 771 mmHg 43%
    12:00 +21°C° 0 mm 2 m/s 771 mmHg 40%
    13:00 +21°C° 0 mm 2 m/s 770 mmHg 41%
    14:00 +23°C° 0 mm 2 m/s 770 mmHg 41%
    15:00 +23°C° 0 mm 2 m/s 769 mmHg 42%
    16:00 +20°C° 0 mm 2 m/s 769 mmHg 47%
    17:00 +18°C° 0 mm 2 m/s 769 mmHg 52%
    18:00 +16°C° 0 mm 1 m/s 768 mmHg 57%
    19:00 +16°C° 0 mm 2 m/s 768 mmHg 59%
    20:00 +15°C° 0 mm 2 m/s 768 mmHg 61%
    21:00 +14°C° 0 mm 2 m/s 768 mmHg 63%
    22:00 +14°C° 0 mm 2 m/s 768 mmHg 64%
    23:00 +13°C° 0 mm 2 m/s 767 mmHg 66%

    28 Septembrie, Vineri

    Timp Temperatura Precipitaţii Vânt Presiune Umiditate
    00:00 +13°C° 0 mm 2 m/s 767 mmHg 67%
    01:00 +13°C° 0 mm 2 m/s 767 mmHg 70%
    02:00 +12°C° 0 mm 2 m/s 766 mmHg 74%
    03:00 +12°C° 0 mm 2 m/s 766 mmHg 77%
    04:00 +12°C° 0 mm 2 m/s 766 mmHg 80%
    05:00 +12°C° 0 mm 2 m/s 766 mmHg 83%
    06:00 +12°C° 0 mm 2 m/s 766 mmHg 86%
    07:00 +14°C° 0 mm 2 m/s 767 mmHg 80%
    08:00 +16°C° 0 mm 3 m/s 767 mmHg 74%
    09:00 +18°C° 0 mm 3 m/s 767 mmHg 68%
    10:00 +19°C° 0 mm 4 m/s 767 mmHg 65%
    11:00 +19°C° 0 mm 5 m/s 768 mmHg 63%
    12:00 +20°C° 0 mm 5 m/s 768 mmHg 60%
    13:00 +19°C° 0 mm 6 m/s 768 mmHg 61%
    14:00 +19°C° 0 mm 6 m/s 768 mmHg 62%
    15:00 +17°C° 0 mm 7 m/s 769 mmHg 63%
    16:00 +15°C° 0 mm 6 m/s 769 mmHg 64%
    17:00 +14°C° 0 mm 5 m/s 770 mmHg 64%
    18:00 +13°C° 0 mm 5 m/s 770 mmHg 65%
    19:00 +12°C° 0 mm 5 m/s 771 mmHg 67%
    20:00 +10°C° 0 mm 5 m/s 771 mmHg 68%
    21:00 +10°C° 0 mm 4 m/s 772 mmHg 70%
    22:00 +8°C° 0 mm 4 m/s 772 mmHg 72%
    23:00 +8°C° 0 mm 4 m/s 772 mmHg 75%

    29 Septembrie, Sâmbătă

    Timp Temperatura Precipitaţii Vânt Presiune Umiditate
    00:00 +7°C° 0 mm 4 m/s 772 mmHg 77%
    01:00 +7°C° 0 mm 4 m/s 772 mmHg 79%
    02:00 +7°C° 0 mm 4 m/s 772 mmHg 81%
    03:00 +7°C° 0 mm 3 m/s 772 mmHg 84%
    04:00 +7°C° 0 mm 3 m/s 772 mmHg 85%
    05:00 +7°C° 0 mm 3 m/s 772 mmHg 86%
    06:00 +5°C° 0 mm 3 m/s 772 mmHg 87%
    07:00 +8°C° 0 mm 3 m/s 772 mmHg 79%
    08:00 +10°C° 0 mm 4 m/s 772 mmHg 71%
    09:00 +12°C° 0 mm 5 m/s 772 mmHg 62%
    10:00 +13°C° 0 mm 5 m/s 772 mmHg 59%
    11:00 +14°C° 0 mm 5 m/s 772 mmHg 56%
    12:00 +15°C° 0 mm 5 m/s 771 mmHg 52%
    13:00 +15°C° 0 mm 5 m/s 771 mmHg 51%
    14:00 +15°C° 0 mm 5 m/s 770 mmHg 51%
    15:00 +16°C° 0 mm 5 m/s 770 mmHg 50%
    16:00 +14°C° 0 mm 4 m/s 770 mmHg 53%
    17:00 +13°C° 0 mm 4 m/s 770 mmHg 57%
    18:00 +11°C° 0 mm 4 m/s 769 mmHg 60%
    19:00 +11°C° 0 mm 4 m/s 769 mmHg 59%
    20:00 +10°C° 0 mm 4 m/s 769 mmHg 59%
    21:00 +10°C° 0 mm 4 m/s 769 mmHg 59%
    22:00 +9°C° 0 mm 3 m/s 769 mmHg 61%
    23:00 +8°C° 0 mm 3 m/s 769 mmHg 63%
    Arată mai mult